OBJECT E, 49319

Orbit data source: Space-Track

You're viewing an Uncataloged Satellite

Recently launched and/or uncataloged satellites may have evolving metadata. Metadata may include but not limited to: Owner, Maufacturer, Bus, Motor, and Mission.

OBJECT E, 49319 is a Chinese satellite in SSO that was launched on Thu, 14 Oct 2021 UTC via a CHANG ZHENG 2D launch vehicle from the Taiyaun Space Center, China (TSC). Unknown objects in Earth's orbit typically refer to objects detected orbiting the Earth but have not yet been identified or cataloged. These objects could be anything from previously untracked satellites, spent rocket stages, debris from satellite collisions, or even natural meteoroids temporarily captured by Earth's gravity.

Loading next visibility...
Identifier
49319, 2021-091E
Orbit
SSO
Country
Flag of CNCN / PRC
Related business
None
Manufacturer
Unknown
Mission
Non-operational Commercial Communications
Bus & Motor
Unknown
Mass
Unknown
Launch date (UTC)
2021-10-14 (4 years ago)
Launch vehicle
CHANG ZHENG 2D
Launch site
Taiyaun Space Center, China (TSC)
Object type
Unknown
Shape & HBR
Box + 2 Pan, 1.0 m
Radar Cross Section
0.223 m², Medium (>0.1 m² and < 1m²)

Expand to show TLE details & history
Last TLE update: 18 hours ago

TLE from 18 hours ago
0 OBJECT E
1 49319U 21091E   25348.85931858  .00021864  00000-0  34617-3 0  9993
2 49319  97.4024 197.4718 0005397 274.9068  85.1569 15.53433601232632
Epoch: 2025-12-14T20:37Z
TLE epoch observation values (Epoch: 2025-12-14T20:37:25.125Z)
Latitude
-0.00001°
Longitude
164.35092°
Altitude
409.538 km
Speed
7.665 km/s
True Right ascension
13h 09m 53s
True Declination
0° 00' 00"
Sunlit
Object was in daylight at epoch
Visualization orbit readout
Latitude
Unknown
Longitude
Unknown
Altitude
Unknown
Speed
Unknown
Apparent Right ascension
Unknown
Apparent Declination
Unknown
Sunlit
N/A
Visualization observer readout
Local Sidereal Time
13:22:49
Azimuth
Unknown
Elevation
Unknown
Doppler factor
Unknown
Orbital elements
Apogee altitude
407.291 km
Perigee altitude
399.971 km
Semi-major axis
6,781.768 km
Eccentricity
0.00054
Inclination
97.4024°
RAAN
197.4718°
Arg. of periapsis
274.9068°
True anomaly
85.21853°
Mean anomaly
85.1569°
Eccentric anomaly
85.18771°
Mean motion
3.88623 °/min
Orbital period
92.63 mins
BSTAR
0.00034617
Loading maneuver chart data...
Computing Atmospheric mass density...
Loading historical data...
Loading historical data...
Loading historical data...
Loading historical data...
Loading historical data...
Loading historical data...
Loading historical data...

Documentation

Showing up to 5 results
|